Home > Weather > Gaza > Past weeks

Flag for Palestinian Territories Past Weather in Gaza, Gaza Strip, Palestinian Territories — Yesterday and Last 2 Weeks

Now
90 °F

Scattered clouds.


Feels Like: 95 °F
Forecast: 80 / 88 °F
Wind: 7 mph from Northwest

Location: Ben Gurion International Airport

Current Time: Aug 24, 2016 at 11:46:30 AM

Latest Report: Aug 24, 2016 at 11:20 AM


Visibility: N/A

Pressure: 29.77 "Hg

Humidity: 52%

Dew Point: 70 °F

Location of GazaLocation

Past Weather in Gaza — Graph

°F

Gaza Temperature Yesterday

Maximum temperature yesterday: 90 °F (at 11:50 AM)
Minimum temperature yesterday: 77 °F (at 4:20 AM)
Average temperature yesterday: 83 °F

High & Low Weather Summary for the Past Weeks

 TemperatureHumidityPressure
High91 °F (Aug 14, 12:50 PM)84% (Aug 10, 2:50 AM)29.86 "Hg (Aug 10, 2:50 AM)
Low75 °F (Aug 13, 4:50 AM)46% (Aug 11, 1:20 PM)29.71 "Hg (Aug 9, 2:20 PM)
Average83 °F66%29.79 "Hg
* Reported Aug 9 10:20 AM — Aug 24 10:20 AM, Gaza, Weather by CustomWeather, © 2016

Note: Actual official high and low records may vary slightly from our data, if they occured in-between our weather recording intervals... More about our weather records

Advertising

Gaza Weather History for the Previous 24 Hours

Scroll right to see more
 ConditionsComfort  
Time TempWeatherWind HumidityBarometerVisibility
10:20 AM
Wed, Aug 24
84 °FPartly sunny.7 mph62%29.77 "HgN/A
9:50 AM84 °FPartly sunny.8 mph62%29.77 "HgN/A
9:20 AM86 °FScattered clouds.2 mph59%29.77 "HgN/A
8:50 AM84 °FScattered clouds.2 mph62%29.77 "HgN/A
8:20 AM82 °FPassing clouds.2 mph70%29.77 "HgN/A
7:50 AM81 °FPassing clouds.3 mph74%29.80 "HgN/A
7:20 AM79 °FPassing clouds.3 mph74%29.80 "HgN/A
6:50 AM77 °FPassing clouds.6 mph79%29.80 "HgN/A
6:20 AM77 °FPassing clouds.6 mph79%29.80 "HgN/A
5:50 AM79 °FPassing clouds.6 mph74%29.77 "HgN/A
5:20 AM79 °FPassing clouds.5 mph74%29.77 "HgN/A
4:50 AM79 °FPassing clouds.5 mph74%29.77 "HgN/A
4:20 AM79 °FPassing clouds.6 mph74%29.77 "HgN/A
3:50 AM79 °FPassing clouds.5 mph74%29.77 "HgN/A
3:20 AM79 °FPassing clouds.3 mph74%29.80 "HgN/A
2:50 AM81 °FPassing clouds.5 mph70%29.80 "HgN/A
2:20 AM81 °FPassing clouds.5 mph70%29.80 "HgN/A
1:50 AM81 °FPassing clouds.2 mph70%29.80 "HgN/A
1:20 AM81 °FPassing clouds.2 mph70%29.80 "HgN/A
12:50 AM81 °FPassing clouds.3 mph70%29.80 "HgN/A
12:20 AM81 °FClear.1 mph74%29.80 "Hg10 mi
11:50 PM
Tue, Aug 23
81 °FClear.2 mph70%29.80 "Hg10 mi
11:20 PM82 °FClear.2 mph70%29.80 "Hg10 mi
10:50 PM82 °FClear.2 mph70%29.80 "Hg10 mi
10:20 PM82 °FClear.3 mph70%29.80 "Hg10 mi
9:50 PM82 °FClear.5 mph66%29.80 "Hg10 mi
9:20 PM82 °FClear.5 mph66%29.80 "Hg10 mi
8:50 PM82 °FClear.6 mph66%29.80 "Hg10 mi
8:20 PM82 °FClear.6 mph66%29.80 "Hg10 mi
7:50 PM84 °FSunny.8 mph62%29.80 "Hg10 mi
7:20 PM84 °FSunny.8 mph62%29.80 "Hg10 mi
6:50 PM84 °FSunny.9 mph62%29.80 "Hg10 mi
6:20 PM86 °FSunny.9 mph59%29.80 "Hg10 mi
5:50 PM86 °FSunny.10 mph55%29.80 "Hg10 mi
5:20 PM86 °FPassing clouds.10 mph59%29.80 "HgN/A
4:50 PM88 °FPassing clouds.12 mph55%29.80 "HgN/A
4:20 PM88 °FPassing clouds.12 mph55%29.80 "HgN/A
3:50 PM88 °FPassing clouds.9 mph59%29.80 "HgN/A
3:20 PM88 °FPassing clouds.10 mph59%29.80 "HgN/A
2:50 PM86 °FPassing clouds.12 mph62%29.80 "HgN/A
2:20 PM88 °FPassing clouds.12 mph59%29.80 "HgN/A
1:50 PM88 °FPassing clouds.13 mph59%29.80 "HgN/A
1:20 PM88 °FPassing clouds.14 mph59%29.80 "HgN/A
12:50 PM88 °FPassing clouds.10 mph59%29.80 "HgN/A
12:20 PM88 °FPassing clouds.10 mph55%29.80 "HgN/A
11:50 AM90 °FPassing clouds.9 mph52%29.83 "HgN/A
11:20 AM88 °FPassing clouds.6 mph55%29.83 "HgN/A
Weather by CustomWeather, © 2016

See weather overviewHow to use our weather pages